This demonstration page uses our WeatherBlox Daily Observations layout. Learn more.

Left ArrowRight Arrow

Hourly Observations for November 9, 2021

Temp ( °F °C ) Dew Point ( °F °C ) Humidity (%) Winds ( mph kmh ) Pressure ( in mb ) Visibility ( mi km ) Precip ( " mm )
12:53 am 00:53 Clear 25 -3.9 17 -8.3 72 72 E 7 11 30.16 1021 10 16 0.00 0.00
1:53 am 01:53 Clear 21 -6.1 16 -8.9 81 81 ENE 5 7 30.14 1021 10 16 0.00 0.00
2:53 am 02:53 Clear 20 -6.7 15 -9.4 81 81 E 3 6 30.11 1020 10 16 0.00 0.00
3:53 am 03:53 Clear 23 -5 16 -8.9 74 74 ENE 9 15 30.08 1019 10 16 0.00 0.00
4:53 am 04:53 Clear 19 -7.2 14 -10 81 81 E 7 11 30.09 1019 10 16 0.00 0.00
5:53 am 05:53 Clear 20 -6.7 15 -9.4 81 81 E 10 17 30.04 1017 10 16 0.00 0.00
6:53 am 06:53 Clear 21 -6.1 15 -9.4 78 78 ENE 13 20 30.00 1016 10 16 0.00 0.00
7:53 am 07:53 Sunny 22 -5.6 15 -9.4 75 75 E 14 22 29.96 1015 10 16 0.00 0.00
8:53 am 08:53 Sunny 26 -3.3 18 -7.8 71 71 E 14 22 29.94 1014 10 16 0.00 0.00
9:53 am 09:53 Sunny 30 -1.1 19 -7.2 64 64 ENE 14 22 29.90 1013 10 16 0.00 0.00
10:53 am 10:53 Sunny 38 3.3 21 -6.1 51 51 E 9 15 29.85 1011 10 16 0.00 0.00
11:53 am 11:53 Mostly Sunny 46 7.8 22 -5.6 38 38 Calm 29.80 1009 10 16 0.00 0.00
12:53 pm 12:53 Cloudy 50 10 22 -5.6 33 33 WNW 5 7 29.76 1008 10 16 0.00 0.00
1:53 pm 13:53 Cloudy 50 10 21 -6.1 32 32 W 5 7 29.76 1008 10 16 0.00 0.00
2:53 pm 14:53 Mostly Sunny 51 10.6 22 -5.6 32 32 S 7 11 29.74 1007 10 16 0.00 0.00
3:53 pm 15:53 Mostly Cloudy 50 10 24 -4.4 36 36 WNW 8 13 29.74 1007 10 16 0.00 0.00
4:53 pm 16:53 Cloudy 50 10 27 -2.8 41 41 SSW 9 15 29.75 1008 10 16 0.00 0.00
5:53 pm 17:53 Cloudy 49 9.4 28 -2.2 44 44 SSW 10 17 29.75 1007 10 16 0.00 0.00
6:53 pm 18:53 Clear 48 8.9 29 -1.7 48 48 SW 15 24 29.75 1008 10 16 0.00 0.00
7:53 pm 19:53 Clear 45 7.2 30 -1.1 56 56 SW 13 20 29.77 1008 10 16 0.00 0.00
8:53 pm 20:53 Clear 43 6.1 30 -1.1 60 60 SW 14 22 29.78 1009 10 16 0.00 0.00
9:53 pm 21:53 Clear 41 5 31 -0.6 67 67 SW 14 22 29.81 1010 10 16 0.00 0.00
10:53 pm 22:53 Cloudy 43 6.1 30 -1.1 60 60 SW 14 22 29.82 1010 10 16 0.00 0.00
11:53 pm 23:53 Cloudy 46 7.8 19 -7.2 34 34 W 26 43 29.82 1010 10 16 0.00 0.00

Powered by AerisWeather